User: anonymous   Login
Location: Cheyres
(46.8153°N, 6.7877°E)
Time: 08:29:44
(UTC+00:00)
Language:

IRIDIUM 33 DEB - Orbit

View from above orbital plane
View from above orbital plane
View from above satellite
View from above satellite

Ground track
Ground track

The orbit data is extracted from the following two-line orbital elements,

1 39791U 97051AAY 22190.04401813  .00059103  00000-0  82091-2 0  9996
2 39791  86.3257 288.5728 0091269  99.9865  74.7711 14.74723592522960
Epoch (UTC): 09 July 2022 01:03:23
Eccentricity: 0.0091269
inclination: 86.3257°
perigee height: 582 km
apogee height: 710 km
right ascension of ascending node: 288.5728°
argument of perigee: 99.9865°
revolutions per day: 14.74723592
mean anomaly at epoch: 74.7711°
orbit number at epoch: 52296

The dashed part of the orbit path shows where the satellite is in the earth's shadow,  

DLR